| time (UTC) | temp C | wind direction | speed KPH | gust KPH | rain 1hr cm | rain 24hr cm | rain mn cm | humidity % | barometer mb |
| 20260906060055 | 13 | 266 | 4.8 | 17.7 | 0.00 | 1.17 | 0.94 | 85 | 1017.0 |
| 20260906055119 | 13 | 269 | 6.4 | 16.1 | 0.00 | 1.17 | 0.94 | 86 | 1016.8 |
| 20260906054040 | 13 | 273 | 4.8 | 12.9 | 0.00 | 1.19 | 0.94 | 87 | 1016.7 |
| 20260906053123 | 13 | 264 | 6.4 | 17.7 | 0.00 | 1.22 | 0.94 | 87 | 1016.5 |
| 20260906052022 | 13 | 283 | 6.4 | 17.7 | 0.00 | 1.32 | 0.94 | 87 | 1016.3 |
| 20260906051039 | 13 | 303 | 4.8 | 17.7 | 0.00 | 1.42 | 0.94 | 87 | 1016.1 |
| 20260906045118 | 12 | 263 | 6.4 | 14.5 | 0.00 | 1.45 | 0.94 | 88 | 1015.7 |
| 20260906044031 | 12 | 273 | 6.4 | 11.3 | 0.00 | 1.45 | 0.94 | 88 | 1015.5 |
| 20260906043107 | 12 | 271 | 6.4 | 14.5 | 0.00 | 1.45 | 0.94 | 87 | 1015.3 |
| 20260906042110 | 12 | 258 | 4.8 | 14.5 | 0.00 | 1.45 | 0.94 | 88 | 1015.1 |
| 20260906041023 | 12 | 270 | 8.0 | 16.1 | 0.00 | 1.65 | 0.94 | 88 | 1014.9 |
| 20260906040046 | 12 | 244 | 6.4 | 12.9 | 0.00 | 1.68 | 0.94 | 88 | 1014.7 |
| 20260906035110 | 12 | 302 | 6.4 | 14.5 | 0.00 | 1.68 | 0.94 | 88 | 1014.5 |
| 20260906034024 | 12 | 264 | 6.4 | 14.5 | 0.00 | 1.68 | 0.94 | 88 | 1014.3 |
| 20260906033047 | 12 | 277 | 8.0 | 16.1 | 0.00 | 1.68 | 0.94 | 88 | 1014.1 |
| 20260906032106 | 12 | 266 | 6.4 | 17.7 | 0.00 | 1.68 | 0.94 | 89 | 1013.8 |
| 20260906031023 | 12 | 266 | 6.4 | 16.1 | 0.05 | 1.68 | 0.94 | 89 | 1013.6 |
| 20260906030047 | 12 | 285 | 8.0 | 20.9 | 0.13 | 1.68 | 0.94 | 89 | 1013.4 |
| 20260906025111 | 12 | 284 | 9.7 | 20.9 | 0.38 | 1.68 | 0.94 | 89 | 1013.3 |
| 20260906024052 | 12 | 262 | 8.0 | 19.3 | 0.38 | 1.68 | 0.94 | 89 | 1013.1 |
| 20260906023054 | 12 | 277 | 8.0 | 22.5 | 0.48 | 1.68 | 0.94 | 90 | 1012.8 |
| 20260906022118 | 12 | 264 | 8.0 | 17.7 | 0.53 | 1.68 | 0.94 | 90 | 1012.7 |
| 20260906021038 | 12 | 273 | 14.5 | 41.8 | 0.51 | 1.63 | 0.89 | 90 | 1012.5 |
| 20260906020111 | 12 | 279 | 9.7 | 19.3 | 0.66 | 1.55 | 0.81 | 90 | 1012.4 |
| 20260906015022 | 12 | 248 | 11.3 | 24.1 | 0.46 | 1.30 | 0.56 | 90 | 1012.0 |
| 20260906014046 | 12 | 245 | 8.0 | 14.5 | 0.43 | 1.27 | 0.53 | 90 | 1012.0 |
| 20260906013151 | 12 | 240 | 9.7 | 16.1 | 0.33 | 1.19 | 0.46 | 90 | 1012.2 |
| 20260906012030 | 12 | 258 | 8.0 | 16.1 | 0.28 | 1.14 | 0.41 | 90 | 1012.2 |
| 20260906011054 | 12 | 253 | 9.7 | 20.9 | 0.33 | 1.12 | 0.38 | 89 | 1012.1 |
| 20260906010158 | 12 | 246 | 9.7 | 17.7 | 0.13 | 0.89 | 0.15 | 87 | 1012.1 |
| 20260906005039 | 13 | 238 | 16.1 | 25.7 | 0.13 | 0.84 | 0.10 | 85 | 1012.1 |
| 20260906004123 | 13 | 253 | 11.3 | 24.1 | 0.13 | 0.84 | 0.10 | 85 | 1012.1 |
| 20260906003022 | 12 | 248 | 12.9 | 27.4 | 0.18 | 0.84 | 0.10 | 86 | 1012.2 |
| 20260906002047 | 12 | 246 | 8.0 | 24.1 | 0.18 | 0.84 | 0.10 | 87 | 1012.3 |
| 20260906001131 | 12 | 227 | 12.9 | 24.1 | 0.13 | 0.79 | 0.05 | 87 | 1012.2 |
| 20260906000030 | 12 | 238 | 9.7 | 20.9 | 0.13 | 0.76 | 0.03 | 86 | 1012.3 |
| 20260905235054 | 12 | 238 | 9.7 | 20.9 | 0.10 | 0.74 | 0.74 | 86 | 1012.2 |
| 20260905234119 | 12 | 236 | 16.1 | 27.4 | 0.10 | 0.71 | 0.71 | 85 | 1012.1 |
| 20260905233039 | 12 | 240 | 9.7 | 25.7 | 0.05 | 0.66 | 0.66 | 85 | 1012.1 |
| 20260905232103 | 12 | 241 | 8.0 | 19.3 | 0.05 | 0.71 | 0.66 | 85 | 1012.2 |
| 20260905231126 | 13 | 238 | 16.1 | 22.5 | 0.05 | 0.71 | 0.66 | 84 | 1012.2 |
| 20260905230038 | 13 | 232 | 9.7 | 20.9 | 0.00 | 0.97 | 0.64 | 85 | 1012.3 |
| 20260905225102 | 13 | 242 | 9.7 | 20.9 | 0.00 | 1.50 | 0.64 | 83 | 1012.0 |
| 20260905224044 | 13 | 235 | 11.3 | 25.7 | 0.00 | 1.65 | 0.64 | 84 | 1012.2 |
| 20260905223046 | 13 | 238 | 12.9 | 24.1 | 0.00 | 1.78 | 0.64 | 83 | 1012.2 |
| 20260905222110 | 13 | 241 | 11.3 | 20.9 | 0.00 | 1.80 | 0.64 | 84 | 1012.1 |
| 20260905221051 | 13 | 234 | 9.7 | 20.9 | 0.00 | 1.80 | 0.64 | 84 | 1012.1 |
| 20260905220055 | 13 | 239 | 14.5 | 24.1 | 0.00 | 1.80 | 0.64 | 84 | 1012.1 |
| 20260905215132 | 13 | 238 | 11.3 | 20.9 | 0.00 | 1.80 | 0.64 | 85 | 1012.1 |
| 20260905214023 | 13 | 239 | 9.7 | 22.5 | 0.00 | 1.80 | 0.64 | 86 | 1012.1 |
| 20260905213047 | 13 | 236 | 11.3 | 24.1 | 0.00 | 1.80 | 0.64 | 86 | 1012.0 |
| 20260905212111 | 13 | 237 | 9.7 | 19.3 | 0.00 | 1.80 | 0.64 | 86 | 1012.0 |
| 20260905211031 | 13 | 244 | 9.7 | 20.9 | 0.00 | 1.80 | 0.64 | 86 | 1011.9 |
| 20260905210114 | 13 | 235 | 12.9 | 24.1 | 0.00 | 1.80 | 0.64 | 85 | 1011.9 |
| 20260905205118 | 13 | 232 | 12.9 | 20.9 | 0.00 | 1.80 | 0.64 | 85 | 1012.0 |
| 20260905204039 | 13 | 241 | 9.7 | 22.5 | 0.00 | 1.80 | 0.64 | 85 | 1011.9 |
| 20260905203104 | 13 | 241 | 12.9 | 20.9 | 0.00 | 1.80 | 0.64 | 86 | 1011.9 |
| 20260905202119 | 13 | 236 | 9.7 | 24.1 | 0.00 | 1.80 | 0.64 | 86 | 1011.9 |
| 20260905201048 | 13 | 246 | 9.7 | 19.3 | 0.00 | 1.80 | 0.64 | 86 | 1012.0 |
| 20260905200104 | 13 | 239 | 9.7 | 17.7 | 0.00 | 1.80 | 0.64 | 86 | 1011.9 |
| 20260905195024 | 13 | 241 | 9.7 | 19.3 | 0.00 | 1.80 | 0.64 | 86 | 1011.9 |
| 20260905194108 | 13 | 232 | 12.9 | 20.9 | 0.00 | 1.80 | 0.64 | 86 | 1012.0 |
| 20260905193111 | 13 | 235 | 9.7 | 20.9 | 0.00 | 1.80 | 0.64 | 85 | 1012.0 |
| 20260905192032 | 13 | 244 | 11.3 | 22.5 | 0.00 | 1.80 | 0.64 | 85 | 1011.9 |
| 20260905191055 | 13 | 236 | 12.9 | 20.9 | 0.00 | 1.80 | 0.64 | 85 | 1011.9 |
| 20260905190120 | 13 | 252 | 9.7 | 22.5 | 0.00 | 1.80 | 0.64 | 85 | 1011.9 |
| 20260905185120 | 13 | 236 | 9.7 | 19.3 | 0.03 | 1.80 | 0.64 | 84 | 1011.8 |
| 20260905184103 | 13 | 236 | 14.5 | 24.1 | 0.03 | 1.83 | 0.64 | 83 | 1011.8 |
| 20260905183119 | 13 | 235 | 14.5 | 25.7 | 0.03 | 1.83 | 0.64 | 84 | 1011.8 |
| 20260905182031 | 13 | 241 | 9.7 | 20.9 | 0.03 | 1.83 | 0.64 | 84 | 1011.7 |
| 20260905181105 | 13 | 246 | 9.7 | 25.7 | 0.03 | 1.83 | 0.64 | 84 | 1011.5 |
| 20260905180108 | 13 | 243 | 11.3 | 22.5 | 0.03 | 1.83 | 0.64 | 82 | 1011.4 |
| 20260905175024 | 13 | 245 | 12.9 | 22.5 | 0.00 | 1.80 | 0.61 | 81 | 1011.3 |
| 20260905174047 | 13 | 243 | 11.3 | 22.5 | 0.00 | 1.80 | 0.61 | 80 | 1011.3 |
| 20260905173111 | 13 | 232 | 14.5 | 24.1 | 0.00 | 1.80 | 0.61 | 79 | 1011.3 |
| 20260905172051 | 13 | 233 | 14.5 | 29.0 | 0.00 | 1.80 | 0.61 | 78 | 1011.2 |
| 20260905171056 | 13 | 240 | 11.3 | 24.1 | 0.00 | 1.80 | 0.61 | 78 | 1011.0 |
| 20260905170112 | 14 | 245 | 11.3 | 25.7 | 0.00 | 1.83 | 0.61 | 78 | 1011.2 |
| 20260905165031 | 14 | 234 | 14.5 | 24.1 | 0.00 | 1.83 | 0.61 | 77 | 1010.9 |
| 20260905164047 | 14 | 237 | 11.3 | 25.7 | 0.00 | 1.83 | 0.61 | 76 | 1010.8 |
| 20260905163103 | 15 | 237 | 14.5 | 27.4 | 0.00 | 1.83 | 0.61 | 75 | 1010.6 |
| 20260905162120 | 15 | 241 | 11.3 | 25.7 | 0.00 | 1.83 | 0.61 | 75 | 1010.4 |
| 20260905161040 | 15 | 244 | 12.9 | 29.0 | 0.00 | 1.83 | 0.61 | 74 | 1010.4 |
| 20260905155131 | 15 | 237 | 16.1 | 32.2 | 0.00 | 1.88 | 0.61 | 73 | 1010.2 |
| 20260905154024 | 15 | 241 | 17.7 | 29.0 | 0.00 | 1.93 | 0.61 | 73 | 1010.3 |
| 20260905153047 | 15 | 241 | 12.9 | 27.4 | 0.00 | 1.93 | 0.61 | 72 | 1010.4 |
| 20260905152055 | 16 | 233 | 16.1 | 33.8 | 0.00 | 1.96 | 0.61 | 71 | 1010.2 |
| 20260905151119 | 16 | 245 | 12.9 | 30.6 | 0.00 | 1.98 | 0.61 | 70 | 1010.2 |
| 20260905150059 | 16 | 240 | 17.7 | 33.8 | 0.00 | 2.06 | 0.61 | 72 | 1010.3 |
| 20260905145104 | 16 | 232 | 14.5 | 33.8 | 0.00 | 2.11 | 0.61 | 71 | 1010.4 |
| 20260905144121 | 16 | 234 | 19.3 | 32.2 | 0.00 | 2.16 | 0.61 | 70 | 1010.6 |
| 20260905143040 | 16 | 237 | 14.5 | 32.2 | 0.00 | 2.18 | 0.61 | 70 | 1010.3 |
| 20260905142104 | 15 | 236 | 25.7 | 33.8 | 0.00 | 2.21 | 0.61 | 70 | 1010.4 |
| 20260905141024 | 15 | 240 | 14.5 | 29.0 | 0.00 | 2.26 | 0.61 | 70 | 1010.3 |
| 20260905140048 | 15 | 244 | 14.5 | 37.0 | 0.00 | 2.34 | 0.61 | 69 | 1010.3 |
| 20260905135125 | 15 | 240 | 19.3 | 32.2 | 0.00 | 2.36 | 0.61 | 68 | 1010.3 |
| 20260905134051 | 14 | 243 | 16.1 | 30.6 | 0.00 | 2.39 | 0.61 | 72 | 1010.2 |
| 20260905133057 | 14 | 235 | 16.1 | 32.2 | 0.00 | 2.41 | 0.61 | 74 | 1010.4 |
| 20260905132113 | 15 | 232 | 19.3 | 33.8 | 0.00 | 2.41 | 0.61 | 74 | 1010.2 |
| 20260905131044 | 15 | 238 | 17.7 | 32.2 | 0.00 | 2.41 | 0.61 | 73 | 1010.2 |
| 20260905130110 | 15 | 231 | 24.1 | 38.6 | 0.00 | 2.41 | 0.61 | 74 | 1010.2 |
| 20260905125105 | 16 | 234 | 24.1 | 41.8 | 0.00 | 2.41 | 0.61 | 71 | 1010.1 |
| 20260905124119 | 15 | 238 | 20.9 | 40.2 | 0.00 | 2.41 | 0.61 | 75 | 1010.0 |
| 20260905123056 | 16 | 240 | 20.9 | 40.2 | 0.00 | 2.41 | 0.61 | 73 | 1009.9 |
| 20260905122054 | 15 | 250 | 12.9 | 32.2 | 0.00 | 2.41 | 0.61 | 81 | 1009.9 |
| 20260905121105 | 15 | 242 | 14.5 | 30.6 | 0.00 | 2.41 | 0.61 | 83 | 1009.8 |
| 20260905120023 | 15 | 238 | 17.7 | 32.2 | 0.00 | 2.41 | 0.58 | 81 | 1009.7 |
| 20260905115047 | 15 | 239 | 14.5 | 38.6 | 0.00 | 2.41 | 0.58 | 78 | 1009.6 |
| 20260905114055 | 16 | 235 | 22.5 | 38.6 | 0.00 | 2.41 | 0.58 | 74 | 1009.5 |
| 20260905113119 | 17 | 231 | 17.7 | 37.0 | 0.00 | 2.41 | 0.58 | 72 | 1009.4 |
| 20260905112039 | 16 | 232 | 16.1 | 41.8 | 0.00 | 2.41 | 0.58 | 76 | 1009.5 |
| 20260905111056 | 16 | 236 | 14.5 | 35.4 | 0.00 | 2.41 | 0.58 | 78 | 1009.5 |
| 20260905110111 | 15 | 241 | 19.3 | 33.8 | 0.00 | 2.41 | 0.58 | 80 | 1009.5 |
| 20260905105024 | 15 | 241 | 25.7 | 45.1 | 0.00 | 2.41 | 0.58 | 79 | 1009.3 |
| 20260905104049 | 15 | 239 | 20.9 | 51.5 | 0.00 | 2.41 | 0.58 | 80 | 1009.1 |
| 20260905103132 | 15 | 236 | 16.1 | 35.4 | 0.00 | 2.41 | 0.58 | 80 | 1009.0 |
| 20260905102030 | 15 | 244 | 14.5 | 32.2 | 0.00 | 2.41 | 0.58 | 82 | 1008.8 |
| 20260905101109 | 15 | 242 | 16.1 | 33.8 | 0.00 | 2.41 | 0.58 | 82 | 1008.8 |
| 20260905100111 | 13 | 247 | 12.9 | 24.1 | 0.00 | 2.41 | 0.58 | 83 | 1008.7 |
| 20260905095035 | 14 | 242 | 16.1 | 35.4 | 0.05 | 2.41 | 0.58 | 82 | 1008.7 |
| 20260905094121 | 15 | 242 | 19.3 | 51.5 | 0.05 | 2.41 | 0.58 | 82 | 1008.6 |
| 20260905093121 | 15 | 246 | 16.1 | 27.4 | 0.05 | 2.39 | 0.58 | 81 | 1008.4 |
| 20260905092031 | 15 | 240 | 17.7 | 37.0 | 0.08 | 2.39 | 0.58 | 80 | 1008.4 |
| 20260905091055 | 15 | 250 | 12.9 | 29.0 | 0.08 | 2.41 | 0.58 | 82 | 1008.2 |
| 20260905090133 | 14 | 235 | 16.1 | 33.8 | 0.08 | 2.46 | 0.58 | 83 | 1008.2 |
| 20260905085030 | 16 | 249 | 14.5 | 27.4 | 0.03 | 2.44 | 0.53 | 73 | 1007.8 |
| 20260905084055 | 16 | 242 | 17.7 | 32.2 | 0.03 | 2.41 | 0.53 | 73 | 1007.7 |
| 20260905083120 | 15 | 262 | 12.9 | 24.1 | 0.03 | 2.41 | 0.53 | 77 | 1007.6 |
| 20260905082038 | 16 | 254 | 14.5 | 22.5 | 0.00 | 2.39 | 0.51 | 70 | 1007.5 |
| 20260905081147 | 15 | 238 | 16.1 | 38.6 | 0.00 | 2.39 | 0.51 | 72 | 1007.5 |
| 20260905080112 | 15 | 243 | 17.7 | 37.0 | 0.00 | 2.39 | 0.51 | 74 | 1007.4 |
| 20260905075031 | 15 | 248 | 17.7 | 37.0 | 0.00 | 2.39 | 0.51 | 75 | 1007.3 |
| 20260905074055 | 15 | 255 | 14.5 | 25.7 | 0.00 | 2.39 | 0.51 | 76 | 1007.2 |
| 20260905073118 | 15 | 235 | 20.9 | 49.9 | 0.00 | 2.39 | 0.51 | 77 | 1006.9 |
| 20260905072100 | 15 | 240 | 12.9 | 32.2 | 0.00 | 2.39 | 0.51 | 82 | 1006.7 |
| 20260905071103 | 15 | 240 | 16.1 | 35.4 | 0.00 | 2.39 | 0.51 | 83 | 1006.7 |
| 20260905070023 | 15 | 247 | 14.5 | 29.0 | 0.00 | 2.39 | 0.51 | 84 | 1006.4 |
| 20260905065046 | 14 | 240 | 12.9 | 29.0 | 0.00 | 2.39 | 0.51 | 85 | 1006.2 |
| 20260905064111 | 14 | 231 | 17.7 | 35.4 | 0.03 | 2.39 | 0.51 | 86 | 1006.2 |
| 20260905063030 | 14 | 238 | 17.7 | 29.0 | 0.05 | 2.39 | 0.51 | 86 | 1006.2 |
| 20260905062055 | 13 | 244 | 14.5 | 32.2 | 0.15 | 2.39 | 0.51 | 87 | 1006.0 |
| 20260905061119 | 13 | 239 | 16.1 | 27.4 | 0.25 | 2.39 | 0.51 | 88 | 1006.1 |